OK1VCF-8 Weather Reports


time (UTC)temp
F
wind
direction
speed
knots
gust
knots
rain 1hr
in
rain 24hr
in
rain mn
in
humidity
%
barometer
mb
20260504194835 65 0 0.0 0.0 0.00 0.00 0.00 53 1012.6
20260504194116 65 0 0.0 0.0 0.00 0.00 0.00 53 1012.5
20260504193358 66 0 0.0 0.0 0.00 0.00 0.00 52 1012.6
20260504192641 66 0 0.0 0.0 0.00 0.00 0.00 52 1012.6
20260504191922 66 0 0.0 0.0 0.00 0.00 0.00 51 1012.4
20260504191203 66 0 0.0 0.0 0.00 0.00 0.00 52 1012.5
20260504190447 66 0 0.0 0.0 0.00 0.00 0.00 50 1012.5
20260504185726 67 0 0.0 0.0 0.00 0.00 0.00 50 1012.4
20260504185007 68 0 0.0 0.0 0.00 0.00 0.00 48 1012.2
20260504184250 68 0 0.0 0.0 0.00 0.00 0.00 48 1012.2
20260504183531 68 0 0.0 0.0 0.00 0.00 0.00 47 1012.2
20260504182528 69 0 0.0 0.0 0.00 0.00 0.00 46 1012.2
20260504181810 70 0 0.0 0.0 0.00 0.00 0.00 45 1012.2
20260504181052 70 0 0.0 0.0 0.00 0.00 0.00 44 1012.2
20260504180334 70 0 0.0 0.0 0.00 0.00 0.00 44 1012.2
20260504175614 70 0 0.0 0.0 0.00 0.00 0.00 42 1012.3
20260504174857 71 0 0.0 0.0 0.00 0.00 0.00 42 1012.4
20260504174139 71 0 0.0 0.0 0.00 0.00 0.00 42 1012.2
20260504173422 72 0 0.0 0.0 0.00 0.00 0.00 42 1012.1
20260504172705 72 0 0.0 0.0 0.00 0.00 0.00 42 1012.2
20260504171946 72 0 0.0 0.0 0.00 0.00 0.00 41 1012.2
20260504171228 73 0 0.0 0.0 0.00 0.00 0.00 40 1012.3
20260504170511 74 0 0.0 0.0 0.00 0.00 0.00 40 1012.2
20260504160402 76 0 0.0 0.0 0.00 0.00 0.00 38 1012.6
20260504141151 79 0 0.0 0.0 0.00 0.00 0.00 34 1013.3
20260504140429 78 0 0.0 0.0 0.00 0.00 0.00 34 1013.4
20260504110143 74 0 0.0 0.0 0.00 0.00 0.00 38 1014.8
20260504081502 67 0 0.0 0.0 0.00 0.00 0.00 44 1015.4
20260504080742 67 0 0.0 0.0 0.00 0.00 0.00 44 1015.4
20260504050344 56 0 0.0 0.0 0.00 0.00 0.00 68 1014.5
20260504045623 56 0 0.0 0.0 0.00 0.00 0.00 67 1014.2
20260504044904 56 0 0.0 0.0 0.00 0.00 0.00 66 1014.4
20260504044144 55 0 0.0 0.0 0.00 0.00 0.00 66 1014.0
20260504043425 54 0 0.0 0.0 0.00 0.00 0.00 68 1014.0
20260504042706 54 0 0.0 0.0 0.00 0.00 0.00 68 1014.2
20260504041946 55 0 0.0 0.0 0.00 0.00 0.00 66 1014.4
20260504041226 54 0 0.0 0.0 0.00 0.00 0.00 67 1014.6
20260504040510 54 0 0.0 0.0 0.00 0.00 0.00 69 1014.6
20260504035751 52 0 0.0 0.0 0.00 0.00 0.00 69 1014.5
20260504035031 52 0 0.0 0.0 0.00 0.00 0.00 69 1014.5
20260504034314 52 0 0.0 0.0 0.00 0.00 0.00 70 1014.7
20260504033556 52 0 0.0 0.0 0.00 0.00 0.00 70 1014.4
20260504032838 52 0 0.0 0.0 0.00 0.00 0.00 70 1014.3
20260504032120 52 0 0.0 0.0 0.00 0.00 0.00 68 1014.2
20260504031117 52 0 0.0 0.0 0.00 0.00 0.00 67 1014.1
20260504030358 52 0 0.0 0.0 0.00 0.00 0.00 68 1014.2
20260504025637 52 0 0.0 0.0 0.00 0.00 0.00 68 1014.2
20260504024919 52 0 0.0 0.0 0.00 0.00 0.00 69 1014.2
20260504024200 52 0 0.0 0.0 0.00 0.00 0.00 69 1014.3
20260504023441 52 0 0.0 0.0 0.00 0.00 0.00 68 1014.3
20260504022721 52 0 0.0 0.0 0.00 0.00 0.00 67 1014.4
20260504022004 53 0 0.0 0.0 0.00 0.00 0.00 66 1014.4
20260504021246 54 0 0.0 0.0 0.00 0.00 0.00 65 1014.2
20260504020525 54 0 0.0 0.0 0.00 0.00 0.00 64 1014.2
20260504015807 54 0 0.0 0.0 0.00 0.00 0.00 64 1014.1
20260504015046 54 0 0.0 0.0 0.00 0.00 0.00 64 1014.0
20260504014329 54 0 0.0 0.0 0.00 0.00 0.00 64 1014.0
20260504013611 55 0 0.0 0.0 0.00 0.00 0.00 62 1014.1
20260504012847 56 0 0.0 0.0 0.00 0.00 0.00 62 1014.1
20260504011819 56 0 0.0 0.0 0.00 0.00 0.00 60 1014.2
20260504011033 56 0 0.0 0.0 0.00 0.00 0.00 60 1014.0
20260504010248 56 0 0.0 0.0 0.00 0.00 0.00 60 1014.4
20260504004019 56 0 0.0 0.0 0.00 0.00 0.00 60 1013.9
20260504003206 56 0 0.0 0.0 0.00 0.00 0.00 59 1013.7
20260504002340 57 0 0.0 0.0 0.00 0.00 0.00 58 1013.7
20260504001524 58 0 0.0 0.0 0.00 0.00 0.00 58 1013.6
20260504000704 58 0 0.0 0.0 0.00 0.00 0.00 56 1013.6
20260503235842 58 0 0.0 0.0 0.00 0.00 0.00 56 1013.8
20260503235011 58 0 0.0 0.0 0.00 0.00 0.00 54 1013.6
20260503234157 59 0 0.0 0.0 0.00 0.00 0.00 54 1013.6
20260503233415 59 0 0.0 0.0 0.00 0.00 0.00 54 1013.4
20260503232639 60 0 0.0 0.0 0.00 0.00 0.00 52 1013.4
20260503231625 60 0 0.0 0.0 0.00 0.00 0.00 52 1013.4
20260503230907 60 0 0.0 0.0 0.00 0.00 0.00 52 1013.3
20260503230150 60 0 0.0 0.0 0.00 0.00 0.00 52 1013.3
20260503225432 60 0 0.0 0.0 0.00 0.00 0.00 52 1013.3
20260503224713 60 0 0.0 0.0 0.00 0.00 0.00 51 1013.2
20260503223955 60 0 0.0 0.0 0.00 0.00 0.00 51 1013.2
20260503223238 60 0 0.0 0.0 0.00 0.00 0.00 51 1013.7
20260503222518 61 0 0.0 0.0 0.00 0.00 0.00 50 1013.2
20260503221800 61 0 0.0 0.0 0.00 0.00 0.00 50 1013.2
20260503221041 62 0 0.0 0.0 0.00 0.00 0.00 50 1013.2
20260503220322 62 0 0.0 0.0 0.00 0.00 0.00 50 1013.4
20260503215604 62 0 0.0 0.0 0.00 0.00 0.00 49 1013.4
20260503214845 62 0 0.0 0.0 0.00 0.00 0.00 49 1013.4
20260503214126 62 0 0.0 0.0 0.00 0.00 0.00 50 1013.2
20260503213408 62 0 0.0 0.0 0.00 0.00 0.00 48 1013.4
20260503212405 62 0 0.0 0.0 0.00 0.00 0.00 48 1013.4
20260503211646 62 0 0.0 0.0 0.00 0.00 0.00 48 1013.6
20260503210929 64 0 0.0 0.0 0.00 0.00 0.00 46 1013.4
20260503210211 64 0 0.0 0.0 0.00 0.00 0.00 46 1013.4
20260503205454 64 0 0.0 0.0 0.00 0.00 0.00 46 1013.4
20260503204737 64 0 0.0 0.0 0.00 0.00 0.00 45 1013.8
20260503204019 64 0 0.0 0.0 0.00 0.00 0.00 46 1013.5
20260503203300 64 0 0.0 0.0 0.00 0.00 0.00 45 1013.5
20260503202541 64 0 0.0 0.0 0.00 0.00 0.00 44 1013.4
20260503201822 64 0 0.0 0.0 0.00 0.00 0.00 44 1013.4
20260503201103 65 0 0.0 0.0 0.00 0.00 0.00 44 1013.5
20260503200345 65 0 0.0 0.0 0.00 0.00 0.00 44 1013.5
20260503195625 65 0 0.0 0.0 0.00 0.00 0.00 43 1013.6